Powrót do katalogu

HAIYANG 2C

AktywnyNaukaLEO
NORAD 46469·PAYLOAD·🇨🇳 China

Wystrzelony Sep 21, 2020 z Jiuquan Satellite Launch Center

Loading…

Następne Przeloty (najbliższe 24 godziny)

TLE

ŚwieżeSource: CelesTrak SupGP

Epoka: Sep 14, 2026, 00:00 UTC

1 46469C 20066A   26257.00000000 -.00000079  00000+0 -71303-4 0  2577
2 46469  66.0001 354.1584 0004995 249.2917  30.7344 13.83374311    11

Śledź HAIYANG 2C w czasie rzeczywistym z AllMySat

Download on the App Store